Location: Vihti�l�
(61.3833°N, 23.0667°E)
Time: 03:54:38
(UTC+00:00)

SL-24 R/B - Pass Details

Date: 29 November 2020
Orbit: 505 x 1003 km, 97.4° (Epoch: 19 January)

Event Time Altitude Azimuth Distance (km) Brightness Sun altitude
Rises 03:44:29 0° 173° (S) 3,502 8.1 -22.6°
Reaches altitude 10° 03:47:03 10° 176° (S) 2,498 7.2 -22.3°
Maximum altitude 03:52:32 63° 257° (WSW) 872 4.4 -21.6°
Enters shadow 03:54:33 35° 325° (NW) 1,197 5.2 -21.4°
